Weather History for KVTA - August, 2013

Change the Weather History Date:

Friday, August 23, 2013

  Actual Average Record
Temperature  
Mean Temperature 74 °F -  
Max Temperature 84 °F 81 °F 96 °F (1936)
Min Temperature 63 °F 59 °F 42 °F (1950)
Cooling Degree Days 9    
Growing Degree Days 24 (Base 50)    
Moisture  
Dew Point 65 °F    
Average Humidity 81    
Maximum Humidity 97    
Minimum Humidity 49    
Precipitation  
Precipitation 1.14 in - - ()
Sea Level Pressure  
Sea Level Pressure 30.06 in    
Wind  
Wind Speed 4 mph (NNW)    
Max Wind Speed 14 mph    
Max Gust Speed 18 mph    
Visibility 8 miles    
Events Rain , Thunderstorm    
Averages and records for this station are not official NWS values.
T = Trace of Precipitation, MM = Missing Value Source: NWS Daily Summary

Daily Weather History Graph

Daily Weather History Graph

Search for Another Location

Airport or City:

Trip Planner

Search our weather history database for the weather conditions in past years. The results will help you decide how hot, cold, wet, or windy it might be!

Date:

Astronomy

Aug. 23, 2013 Rise Set
Actual Time 6:49 AM EDT 8:14 PM EDT
Civil Twilight 6:20 AM EDT 8:43 PM EDT
Nautical Twilight 5:46 AM EDT 9:17 PM EDT
Astronomical Twilight 5:10 AM EDT 9:52 PM EDT
Moon 9:32 PM EDT (8/23) 9:43 AM EDT (8/23)
Length of Visible Light 14h 22m
Length of Day
13h 25m
Waning Gibbous, 91% of the Moon is Illuminated
Aug 23
Waning Gibbous
Aug 28
Last Quarter
Sep 5
New
Sep 12
First Quarter
Sep 19
Full

Hourly Weather History & Observations

Time (EDT) Temp. Heat Index Dew Point Humidity Pressure Visibility Wind Dir Wind Speed Gust Speed Precip Events Conditions
12:54 AM 71.1 °F - 69.1 °F 93% 30.02 in 6.0 mi West 5.8 mph - 0.02 in Rain Light Rain
1:00 AM 71.6 °F - 69.8 °F 94% 30.04 in 7.0 mi West 4.6 mph - 0.00 in Rain , Thunderstorm Light Thunderstorms and Rain
1:08 AM 71.6 °F - 69.8 °F 94% 30.06 in 2.5 mi WSW 10.4 mph - 0.11 in Rain , Thunderstorm Heavy Thunderstorms and Rain
1:18 AM 71.6 °F - 69.8 °F 94% 30.05 in 1.8 mi SW 13.8 mph 18.4 mph 0.29 in Rain , Thunderstorm Heavy Thunderstorms and Rain
1:37 AM 69.8 °F - 68.0 °F 94% 30.06 in 1.8 mi Variable 4.6 mph - 0.65 in Rain , Thunderstorm Heavy Thunderstorms and Rain
1:49 AM 69.8 °F - 68.0 °F 94% 30.07 in 1.8 mi Calm Calm - 0.87 in Rain , Thunderstorm Heavy Thunderstorms and Rain
1:54 AM 70.0 °F - 68.0 °F 93% 30.04 in 1.2 mi Calm Calm - 1.01 in Rain , Thunderstorm Heavy Thunderstorms and Rain
2:07 AM 69.8 °F - 68.0 °F 94% 30.06 in 3.0 mi NE 4.6 mph - 0.08 in Rain , Thunderstorm Heavy Rain
2:21 AM 69.8 °F - 66.2 °F 88% 30.05 in 8.0 mi NE 3.5 mph - 0.09 in Rain Light Rain
2:54 AM 68.0 °F - 66.9 °F 96% 30.02 in 7.0 mi NW 4.6 mph - 0.09 in   Mostly Cloudy
3:51 AM 68.0 °F - 66.2 °F 94% 30.04 in 8.0 mi Calm Calm - N/A   Overcast
3:54 AM 66.9 °F - 66.0 °F 97% 30.02 in 8.0 mi Calm Calm - N/A   Overcast
4:03 AM 68.0 °F - 66.2 °F 94% 30.04 in 7.0 mi Calm Calm - N/A   Overcast
4:15 AM 69.8 °F - 66.2 °F 88% 30.04 in 9.0 mi Calm Calm - N/A   Overcast
4:43 AM 69.8 °F - 66.2 °F 88% 30.04 in 9.0 mi West 3.5 mph - N/A   Overcast
4:47 AM 69.8 °F - 66.2 °F 88% 30.04 in 9.0 mi Calm Calm - N/A   Overcast
4:54 AM 69.1 °F - 66.9 °F 93% 30.02 in 9.0 mi Calm Calm - N/A   Overcast
5:20 AM 69.8 °F - 66.2 °F 88% 30.04 in 8.0 mi NW 3.5 mph - N/A   Overcast
5:50 AM 69.8 °F - 66.2 °F 88% 30.05 in 7.0 mi Calm Calm - N/A   Overcast
5:54 AM 70.0 °F - 66.9 °F 90% 30.03 in 7.0 mi Calm Calm - N/A   Overcast
6:28 AM 69.8 °F - 66.2 °F 88% 30.06 in 8.0 mi NW 5.8 mph - N/A   Overcast
6:44 AM 69.8 °F - 66.2 °F 88% 30.06 in 8.0 mi NNW 4.6 mph - N/A   Overcast
6:54 AM 69.1 °F - 66.9 °F 93% 30.05 in 7.0 mi North 5.8 mph - N/A   Overcast
7:10 AM 69.8 °F - 66.2 °F 88% 30.08 in 8.0 mi Variable 5.8 mph - N/A   Overcast
7:54 AM 68.0 °F - 64.9 °F 90% 30.06 in 10.0 mi Calm Calm - 0.02 in Rain Light Rain
8:54 AM 69.1 °F - 66.0 °F 90% 30.06 in 10.0 mi Calm Calm - 0.00 in   Mostly Cloudy
9:09 AM 69.8 °F - 66.2 °F 88% 30.09 in 10.0 mi North 3.5 mph - N/A   Mostly Cloudy
9:54 AM 72.0 °F - 66.0 °F 81% 30.07 in 10.0 mi NNE 3.5 mph - N/A   Partly Cloudy
10:54 AM 75.0 °F - 66.9 °F 76% 30.09 in 10.0 mi Variable 5.8 mph - N/A   Clear
11:54 AM 78.1 °F - 66.9 °F 68% 30.09 in 10.0 mi Variable 4.6 mph - N/A   Clear
12:54 PM 80.1 °F 81.9 °F 64.9 °F 60% 30.07 in 10.0 mi North 5.8 mph - N/A   Partly Cloudy
1:54 PM 81.0 °F 82.2 °F 63.0 °F 54% 30.07 in 10.0 mi NNE 4.6 mph - N/A   Partly Cloudy
2:54 PM 82.9 °F 84.0 °F 63.0 °F 51% 30.07 in 10.0 mi Variable 6.9 mph - N/A   Partly Cloudy
3:54 PM 82.9 °F 83.7 °F 62.1 °F 49% 30.06 in 10.0 mi NNE 4.6 mph - N/A   Clear
4:54 PM 82.9 °F 83.7 °F 62.1 °F 49% 30.05 in 10.0 mi Variable 6.9 mph - N/A   Scattered Clouds
5:54 PM 82.0 °F 83.0 °F 62.1 °F 51% 30.05 in 10.0 mi North 5.8 mph - N/A   Clear
6:54 PM 79.0 °F - 63.0 °F 58% 30.06 in 10.0 mi Variable 5.8 mph - N/A   Clear
7:54 PM 75.9 °F - 62.1 °F 62% 30.08 in 10.0 mi North 3.5 mph - N/A   Clear
8:54 PM 73.0 °F - 60.1 °F 64% 30.11 in 10.0 mi NNE 4.6 mph - N/A   Clear
9:54 PM 70.0 °F - 59.0 °F 68% 30.13 in 10.0 mi NNE 3.5 mph - N/A   Clear
10:54 PM 66.0 °F - 57.9 °F 75% 30.15 in 10.0 mi Calm Calm - N/A   Clear
11:54 PM 63.0 °F - 57.0 °F 81% 30.17 in 10.0 mi Calm Calm - N/A   Clear